Theta_e
315 314 314 313 314 314 314 315 314 313 310 308 308 307 307 306 306 306 305 305 305 305 306 306 306 306 307 307 307 307 307 310 314 315 318 318 313 312 312 313 313 313 313 312 313 313 314 315 314 315 316 316 318 319 318 318 318 320 321 316 315 316 317 318 318 318 317 318 316 315 315 316 316 314 314 314 314 314 315 315 315 316 315 317 315 316 326 329
315 314 313 313 313 314 314 314 314 313 311 308 308 307 307 306 306 305 305 305 305 305 305 306 306 306 307 307 307 308 308 312 316 316 319 316 311 312 313 313 314 313 314 314 314 314 314 314 314 315 315 315 317 318 318 318 318 319 320 317 316 319 318 318 318 318 318 318 316 316 315 315 316 315 315 314 315 315 315 316 315 316 315 317 316 316 325 328
315 314 313 313 313 313 313 313 313 313 311 308 308 308 307 306 305 305 305 305 305 305 305 306 306 306 307 307 308 307 309 314 314 315 318 313 311 313 313 313 313 313 314 315 315 314 314 314 314 315 315 315 315 316 317 317 317 318 319 318 317 319 318 317 317 317 316 317 317 316 315 315 316 315 316 314 316 316 315 316 315 317 315 317 316 317 323 327
315 314 313 313 313 312 312 312 313 312 311 309 308 308 307 306 305 305 305 305 305 305 305 305 306 307 307 307 308 308 313 316 312 315 316 311 312 313 312 313 312 313 313 314 314 314 314 314 315 315 315 314 314 315 316 315 317 317 316 316 317 317 317 316 316 315 314 315 316 316 315 315 315 315 315 315 315 316 316 316 316 316 316 318 317 317 322 326
314 314 312 313 312 312 312 312 312 312 312 311 309 308 307 305 305 305 305 304 305 305 305 306 306 307 306 307 308 310 316 314 313 318 315 311 313 312 312 312 312 312 312 313 314 314 314 314 315 314 315 315 314 314 315 314 315 316 314 315 316 316 317 315 314 313 313 314 316 316 315 315 315 314 315 316 315 316 316 316 316 316 317 319 319 318 322 324
313 312 312 312 312 312 312 312 311 312 314 312 309 308 306 306 305 304 305 305 304 305 305 305 306 306 307 308 307 311 316 312 314 318 313 311 312 312 312 312 313 313 312 313 314 314 315 314 314 314 314 315 314 315 314 314 315 316 315 314 314 315 316 314 313 312 312 315 316 316 315 315 315 315 315 315 316 316 316 316 317 316 316 319 320 320 321 323
312 311 311 311 312 311 311 312 311 312 314 312 310 309 307 306 305 305 305 305 305 305 305 306 306 306 307 308 309 312 314 312 315 315 312 312 312 312 313 313 314 314 314 314 314 314 314 314 314 314 314 314 314 315 315 314 314 316 316 315 314 314 314 313 313 311 312 314 315 315 314 315 315 315 315 315 315 316 315 316 316 315 315 316 319 321 321 322
313 311 311 311 311 311 311 312 311 312 313 312 310 309 308 306 305 305 305 305 306 305 306 306 306 307 308 310 314 314 313 315 315 314 312 312 312 313 314 314 315 314 315 315 314 314 313 314 314 314 315 314 314 314 314 314 315 316 316 315 314 314 314 312 312 312 312 313 313 313 314 315 315 314 314 314 315 316 316 315 315 315 314 314 316 319 321 321
313 311 311 311 311 311 311 311 311 311 312 311 310 310 309 307 305 305 305 306 306 306 306 306 306 307 308 312 316 313 313 315 314 313 312 312 312 313 314 315 315 315 315 314 314 315 314 314 314 314 315 314 315 314 314 315 314 316 315 315 315 315 314 312 312 312 312 313 313 313 315 315 313 312 313 315 315 316 316 315 315 315 314 314 315 316 319 320
312 311 310 310 310 310 310 310 310 311 312 311 310 310 309 307 306 305 305 306 306 307 307 306 307 308 309 313 313 311 316 315 312 312 312 311 312 313 315 315 315 315 315 315 315 314 315 315 314 315 316 315 315 315 315 316 315 315 315 315 315 315 314 313 314 313 313 313 313 314 315 315 313 312 314 316 316 315 315 315 315 315 315 315 315 315 318 319
312 311 310 309 309 309 309 310 309 310 312 311 310 310 309 307 306 305 305 306 306 308 307 307 308 309 312 313 310 313 317 316 313 312 312 312 313 314 315 314 314 316 315 315 316 316 315 316 316 316 316 315 315 315 315 315 315 315 315 315 315 315 315 314 315 314 314 314 313 314 315 315 315 313 315 316 315 315 315 315 316 315 315 315 316 316 317 319
311 311 310 309 309 309 309 310 309 310 311 311 311 310 308 307 306 305 305 306 306 308 308 308 308 309 312 311 312 316 317 316 314 311 312 312 313 315 315 314 314 315 316 316 315 314 314 315 316 315 315 315 315 315 314 314 315 315 315 316 316 315 316 315 315 315 315 315 314 315 315 315 317 315 316 317 315 315 315 316 316 316 316 316 316 317 317 318
312 311 310 310 309 309 309 309 309 310 311 311 311 310 308 306 306 305 305 306 306 308 308 309 309 310 312 311 315 317 316 314 313 311 312 313 314 315 315 315 314 315 316 315 314 313 313 314 315 315 315 316 316 315 314 315 315 316 316 317 317 315 315 316 316 315 315 315 314 314 313 315 318 318 317 317 315 316 315 316 316 317 317 317 317 317 317 318
311 310 310 310 310 310 310 310 310 310 310 312 311 310 308 307 307 305 305 306 307 308 309 310 310 311 312 311 315 317 315 313 312 312 312 313 315 315 315 315 314 315 315 314 313 312 313 315 316 315 315 315 315 314 315 315 315 317 316 315 317 314 314 317 316 315 316 314 313 315 312 314 318 318 317 316 315 315 316 316 317 317 317 317 318 318 317 317
310 310 310 310 310 310 310 310 310 310 310 311 311 309 308 307 307 306 305 306 307 309 310 311 311 311 311 310 313 316 315 313 313 313 312 314 316 315 314 314 314 314 313 313 313 313 315 316 316 315 314 314 315 315 316 316 316 317 313 312 316 314 314 317 315 315 316 314 314 315 313 315 318 318 315 314 313 314 315 317 317 317 317 317 318 318 317 317
310 310 311 311 311 311 311 310 310 310 311 311 310 309 308 308 308 306 306 307 309 309 311 314 312 310 310 312 313 314 314 315 315 313 312 315 318 316 315 314 314 314 314 314 314 315 316 315 315 316 315 314 316 317 317 315 314 316 313 312 315 313 313 316 314 314 315 314 315 314 314 316 317 317 316 314 314 314 315 317 317 317 317 318 317 317 317 317
311 310 310 310 311 311 311 310 309 310 310 310 309 309 309 309 309 309 308 310 312 312 313 315 311 309 310 312 313 313 315 318 316 313 312 314 316 316 315 315 315 316 315 316 316 317 317 315 314 316 315 315 316 316 314 311 311 314 314 312 315 315 311 313 314 315 314 314 316 316 315 316 316 317 317 315 315 315 316 317 317 317 317 318 318 317 318 317
312 311 310 310 311 311 310 310 310 309 309 310 310 310 310 311 311 312 312 312 312 311 311 310 310 310 309 309 313 314 316 317 314 313 312 312 314 315 316 316 316 316 316 316 316 316 316 315 316 317 315 315 316 315 312 311 311 313 314 312 312 314 311 311 314 315 314 315 315 316 316 316 316 316 317 317 316 316 317 317 316 317 317 317 318 318 318 318
312 312 311 310 311 311 310 310 310 309 310 311 312 312 312 312 312 314 315 312 310 308 309 309 309 310 309 310 315 315 315 315 313 314 313 313 313 314 315 316 316 316 315 315 315 316 317 316 316 317 315 315 315 315 313 313 313 313 315 313 311 312 312 313 315 314 314 315 315 315 315 316 316 317 317 317 317 317 317 317 317 317 317 317 317 317 318 319
313 312 311 310 311 311 311 311 310 310 311 312 314 315 314 313 312 312 312 311 310 310 311 311 310 310 312 314 315 314 313 314 313 314 314 313 314 314 315 315 316 315 314 316 316 315 316 317 316 316 316 316 316 315 315 315 314 314 315 314 313 313 312 315 317 314 314 314 314 316 316 316 316 316 317 317 317 317 317 318 318 317 318 318 318 318 319 318
313 313 312 311 311 311 311 311 310 310 311 313 316 317 313 311 311 311 311 309 311 312 311 312 313 313 314 315 315 314 314 314 314 315 314 313 315 314 314 314 314 314 314 317 317 315 315 316 316 316 316 316 316 316 315 314 314 314 314 313 313 314 313 316 317 313 313 313 314 315 315 316 317 316 316 317 316 317 316 317 318 317 318 318 319 319 320 319
314 313 313 312 311 311 311 311 311 310 311 313 316 317 312 311 311 312 312 309 311 313 311 312 313 313 314 315 314 314 315 314 314 315 314 313 314 314 313 313 313 314 315 315 315 315 315 314 315 316 315 315 315 315 314 315 315 315 315 315 314 315 315 315 316 314 313 313 314 315 315 315 316 316 316 316 316 317 317 317 317 317 318 319 319 319 320 320
315 314 313 312 312 312 311 311 311 310 312 315 316 316 312 310 309 309 312 311 312 313 311 310 312 312 313 314 314 314 314 314 314 315 314 313 314 313 313 313 312 315 316 314 314 314 313 314 315 316 314 314 314 314 315 315 316 316 316 314 313 317 315 311 313 314 314 314 314 315 316 316 317 316 316 317 317 317 317 318 318 318 319 319 320 320 320 319
315 314 314 313 312 312 312 311 311 311 313 315 317 315 311 310 309 309 313 312 310 312 311 311 312 312 313 313 313 314 313 314 315 315 314 314 313 313 314 313 313 315 315 314 314 313 314 314 314 314 314 314 314 315 316 315 314 316 318 316 314 316 315 312 315 316 315 314 314 316 315 315 318 319 319 319 318 318 318 318 318 319 319 320 321 321 320 320
316 315 314 313 313 313 312 312 312 313 314 314 315 312 309 310 310 309 313 312 309 312 312 312 312 311 313 313 313 314 313 312 314 315 315 314 313 312 313 314 314 314 314 314 313 313 314 313 313 315 314 314 315 314 316 315 313 314 319 319 315 314 315 316 318 317 313 313 315 316 313 312 316 319 320 320 319 318 319 319 319 319 320 320 320 320 320 320
316 315 314 313 313 313 311 313 314 313 313 314 314 310 309 311 310 309 311 310 310 312 311 311 312 311 311 313 314 313 311 311 313 315 315 314 313 312 313 313 313 314 314 314 314 314 314 312 314 316 315 317 317 314 316 318 313 312 318 319 317 317 317 317 318 316 311 312 316 316 313 312 314 315 317 319 318 317 317 319 320 319 320 320 320 321 320 320
317 316 315 314 313 312 312 314 314 312 312 313 312 309 309 312 311 310 311 311 312 314 312 310 310 311 311 313 314 311 310 312 313 314 314 313 313 312 312 313 312 313 315 314 313 314 314 313 315 317 317 318 317 315 318 318 313 314 318 318 317 317 318 319 319 316 314 317 317 316 316 315 313 314 316 317 316 316 316 317 319 319 320 320 320 322 321 320
318 316 315 314 313 312 313 313 313 312 311 312 310 308 311 312 312 311 309 311 314 314 313 310 308 310 312 313 312 310 310 311 313 313 313 312 313 312 312 313 312 312 314 313 313 314 315 315 316 316 316 317 316 317 319 317 315 317 317 317 317 318 319 320 319 316 317 319 316 317 319 315 312 314 317 317 315 315 316 316 318 318 319 320 321 321 320 319
319 317 316 315 313 313 312 312 313 313 311 310 308 309 312 312 312 311 309 312 315 313 311 310 309 310 312 312 311 310 310 311 314 313 311 311 312 312 311 313 313 313 314 312 314 316 314 314 315 316 316 316 315 314 317 318 316 316 316 317 318 318 318 319 318 316 317 318 316 318 318 312 310 311 315 318 316 315 316 316 317 318 319 322 323 322 319 316
319 318 317 315 314 313 312 312 312 311 310 309 308 311 313 312 311 309 310 313 315 313 310 310 311 311 312 311 310 310 310 312 313 312 312 312 312 312 311 312 313 314 315 314 315 315 312 310 312 315 315 315 314 312 314 318 316 316 318 318 318 318 318 318 317 316 315 316 316 318 317 311 309 311 315 318 316 315 316 315 317 319 318 323 323 320 317 315
319 319 317 315 315 313 313 314 314 311 309 309 310 312 313 313 311 309 311 312 313 314 311 310 312 312 311 312 311 311 311 313 313 313 313 313 312 312 312 312 313 315 315 315 316 315 314 313 314 314 312 312 314 313 313 315 316 318 319 317 316 317 318 317 317 318 316 315 316 317 317 314 311 312 315 318 317 317 316 315 316 317 317 323 324 318 315 315
318 319 318 316 315 314 314 316 316 312 309 310 312 314 313 311 311 312 312 309 311 314 313 313 314 312 312 313 313 311 312 314 314 313 314 314 313 313 312 313 313 314 314 314 316 317 316 316 315 313 311 313 315 315 314 314 316 318 317 315 314 314 315 316 318 320 318 315 316 317 318 316 313 313 316 317 318 318 317 317 317 318 317 321 325 320 316 315
317 318 318 316 315 314 315 317 316 312 310 312 314 314 313 311 311 313 311 309 312 316 315 314 314 313 313 313 313 312 312 314 314 314 315 315 315 315 314 314 313 314 314 314 316 316 316 317 317 315 313 313 315 316 315 314 315 316 316 315 314 312 314 317 317 317 316 315 315 315 318 317 314 315 317 316 317 317 317 318 319 320 320 320 324 322 317 316
315 317 317 316 315 316 316 317 316 311 310 314 313 312 313 313 312 312 311 312 315 315 315 314 314 313 313 314 314 312 312 314 314 314 316 316 316 316 315 314 314 315 315 314 316 316 316 317 317 316 315 314 316 317 316 316 316 316 317 316 315 312 313 314 314 314 314 314 314 315 317 316 314 315 317 317 317 317 317 318 319 321 321 322 323 322 320 317
314 315 316 316 315 316 317 317 316 311 311 315 313 310 312 313 312 312 312 315 316 315 314 314 314 314 314 315 315 312 312 315 315 314 316 316 316 317 316 315 314 315 315 314 315 316 315 316 318 317 315 314 316 318 318 317 316 316 318 318 317 316 312 312 314 314 313 313 314 315 315 315 315 316 317 317 317 317 318 319 319 319 320 321 321 321 321 319
313 314 315 316 315 315 315 316 314 311 313 316 313 310 311 312 312 312 313 316 316 315 315 314 315 315 314 315 315 313 313 315 316 315 316 316 316 317 317 316 315 315 315 313 314 316 314 315 318 315 314 314 315 317 317 316 316 316 317 318 318 318 315 313 315 314 313 314 314 314 314 313 313 315 317 317 316 317 317 318 317 318 319 319 321 322 322 322
313 313 314 315 315 315 315 314 313 311 314 316 314 312 313 313 314 315 314 315 315 315 315 315 315 315 315 315 315 314 314 315 316 315 316 316 316 316 317 317 315 315 315 313 314 316 314 314 315 315 315 314 311 314 315 315 316 316 316 317 316 317 315 313 314 315 315 316 314 313 313 313 312 314 317 317 316 316 316 317 317 317 319 319 322 324 323 322
313 313 314 314 315 316 315 313 313 312 313 314 314 315 316 315 317 318 316 315 315 315 315 315 315 316 316 315 314 314 314 314 315 315 315 315 314 315 316 317 316 315 314 313 313 316 314 314 314 313 315 314 311 313 315 314 314 315 316 317 315 316 316 314 314 315 316 317 316 315 314 313 312 314 316 316 316 316 316 317 317 317 319 319 321 323 322 320
313 313 315 314 314 315 315 313 312 312 313 313 313 316 318 317 318 318 316 315 315 314 314 314 315 316 316 315 315 315 313 314 316 315 315 315 314 315 316 316 317 316 314 313 313 315 314 313 314 312 312 314 312 313 315 315 314 313 315 316 316 316 316 315 315 314 314 315 316 316 315 313 314 315 315 316 317 317 316 317 318 318 318 319 320 322 322 322
312 313 315 315 313 315 315 313 312 312 312 312 312 314 318 318 318 317 315 317 317 315 315 314 315 316 316 316 316 315 314 314 317 315 314 315 315 315 315 315 316 316 314 313 313 314 313 312 314 313 312 314 314 314 316 316 315 313 313 315 316 316 315 316 317 315 315 315 315 316 316 314 315 316 317 317 316 317 318 318 319 320 319 320 321 322 323 323
311 312 314 314 313 314 314 314 314 312 310 311 311 312 315 316 317 316 316 317 318 318 318 317 316 316 316 317 316 316 315 315 316 316 315 315 315 316 316 314 315 316 315 314 313 314 314 312 313 314 313 315 316 317 317 316 317 315 314 315 315 316 316 316 318 317 316 316 314 315 316 315 315 317 317 317 317 317 319 319 319 321 321 321 322 322 323 325
310 311 313 314 314 313 313 315 314 309 308 310 310 310 312 314 315 316 316 316 316 317 318 318 319 318 317 317 316 317 317 315 317 317 316 316 315 315 316 315 315 316 315 315 315 314 315 314 313 315 317 317 316 315 315 316 317 317 316 316 316 316 316 316 317 317 316 317 316 316 318 317 319 321 318 318 320 320 320 321 319 320 322 323 324 322 322 323
309 310 312 313 314 313 314 316 314 309 308 309 309 309 311 312 314 316 316 315 315 317 318 319 320 319 318 318 317 318 317 317 318 318 317 317 316 316 317 315 316 316 315 316 316 315 315 314 314 314 316 317 315 314 314 313 315 317 317 317 316 317 317 316 316 316 317 318 317 317 318 318 322 327 323 321 325 325 322 322 320 321 322 322 322 321 320 320
307 309 311 312 313 313 314 316 314 310 309 309 309 310 310 311 313 315 315 315 316 317 318 318 319 319 320 319 318 318 318 317 318 319 318 318 318 320 320 317 317 316 315 316 316 315 315 314 314 314 315 317 318 316 316 315 314 316 316 317 317 318 319 319 317 316 318 319 319 319 318 317 321 323 320 318 321 322 319 317 317 320 323 322 321 320 319 319
307 308 309 311 313 313 314 316 315 312 310 309 310 310 310 311 311 313 314 316 317 318 318 319 320 319 320 320 319 319 319 317 318 319 318 318 319 318 319 320 318 315 317 320 318 315 316 316 314 314 315 317 319 320 318 317 315 315 316 317 317 318 319 319 317 316 318 319 320 320 318 316 318 319 317 316 317 318 316 316 315 317 319 321 321 321 319 319
305 305 307 309 311 312 313 315 315 313 311 311 311 311 311 312 312 312 313 316 317 317 318 320 320 319 321 321 320 320 320 319 320 320 319 319 319 317 317 320 318 315 319 323 319 316 319 319 316 315 317 316 318 321 321 318 316 316 317 317 317 318 319 319 318 317 318 318 319 319 318 318 318 318 318 317 316 317 317 317 316 316 317 319 321 322 321 319
305 305 306 308 310 311 313 314 314 314 313 311 312 312 312 312 313 313 313 315 316 316 317 318 319 319 320 321 321 321 320 320 320 320 319 319 319 317 315 316 317 317 317 318 318 317 318 320 318 317 318 317 317 320 321 319 318 317 318 318 318 318 319 320 320 318 318 319 318 318 319 320 318 317 318 318 317 318 318 317 318 317 318 320 321 321 319 317
305 305 305 307 309 310 312 313 313 314 314 313 313 313 313 313 314 314 314 313 315 316 317 317 317 318 319 319 320 321 321 320 320 319 319 319 319 317 316 315 316 316 315 316 319 319 317 318 318 318 319 318 317 318 320 320 320 318 318 319 318 318 319 320 320 319 318 319 318 318 319 320 319 317 318 318 318 318 318 318 318 317 319 320 321 320 318 316
304 305 306 307 308 309 311 312 313 314 314 314 314 314 314 314 314 314 314 314 314 316 316 316 316 316 317 318 320 321 321 321 321 320 319 319 319 318 317 317 316 313 313 316 318 318 318 316 316 318 319 318 318 319 319 321 320 320 320 319 319 319 319 319 318 318 319 319 318 318 319 320 319 318 318 318 319 319 319 318 318 318 319 320 320 320 319 317
303 304 305 307 308 308 309 310 312 313 314 314 314 314 313 314 314 314 313 314 314 315 315 315 315 315 316 317 319 319 319 320 321 321 319 319 320 318 317 318 317 314 313 315 316 316 315 316 318 319 318 319 319 318 319 321 322 321 321 320 319 319 320 319 319 319 319 319 318 319 320 319 318 318 319 319 320 320 319 318 318 318 319 319 319 320 320 319
304 304 306 307 307 307 308 309 310 311 313 313 313 313 313 314 314 314 314 314 314 315 315 315 315 315 316 317 318 318 318 318 319 320 320 320 320 320 318 318 318 317 314 313 314 315 314 315 319 318 317 318 318 318 321 323 322 321 321 321 320 321 321 321 319 319 320 320 320 320 320 319 318 318 319 318 319 319 319 318 318 318 318 318 318 319 320 320
303 304 304 305 306 306 307 308 309 310 311 312 312 312 313 313 313 314 315 314 314 314 314 314 315 316 317 317 317 317 317 318 319 319 321 321 320 321 319 317 318 318 316 313 313 314 314 315 315 316 318 319 319 320 322 322 321 321 320 319 319 319 320 321 320 320 319 319 320 320 319 318 318 318 318 318 318 319 319 319 319 318 318 318 318 318 318 319
Wind_Speed
11 10 9 7 7 6 6 5 4 5 7 8 8 8 7 7 7 8 8 8 8 8 8 9 8 8 7 7 6 5 4 4 4 7 7 3 6 8 7 5 4 5 4 5 6 5 4 4 4 3 4 3 0 1 1 1 1 3 4 5 4 4 3 3 4 2 1 3 7 9 10 9 6 7 4 2 5 6 3 5 5 4 3 4 9 9 11 12
9 10 9 8 8 7 6 5 4 5 7 8 8 8 8 7 7 7 8 8 8 8 9 9 9 8 8 7 6 5 4 4 6 7 5 5 8 8 6 5 4 5 4 4 6 6 4 4 5 5 4 3 1 1 2 0 1 3 3 5 3 1 3 3 1 3 3 1 5 8 8 7 3 6 7 4 8 8 7 7 8 7 7 9 10 10 12 12
11 11 10 8 8 7 6 6 5 5 6 8 8 8 8 7 7 8 8 8 8 9 9 9 9 9 8 7 5 5 4 4 6 5 6 8 8 7 6 5 5 5 4 2 4 5 3 2 6 6 4 3 1 2 3 0 1 1 2 5 1 4 5 5 4 5 5 4 3 8 6 5 2 4 6 6 8 8 9 8 8 9 10 11 12 12 13 13
13 14 11 8 9 7 6 6 5 5 5 6 8 8 8 8 8 8 8 8 8 9 9 9 9 9 8 7 6 5 4 4 4 4 7 9 8 7 6 5 5 4 4 2 2 3 2 3 5 6 4 3 2 3 4 2 1 1 1 3 3 2 2 4 4 6 6 4 1 6 5 6 3 3 4 6 8 7 9 10 9 9 9 11 14 14 15 14
15 16 12 9 9 8 7 6 5 5 5 5 7 8 8 8 8 8 9 8 9 9 9 9 9 9 8 6 6 5 3 4 2 5 9 10 8 7 6 5 4 3 4 2 2 2 4 5 6 5 4 4 5 4 3 3 1 2 1 2 4 1 1 4 3 4 4 2 1 5 5 5 4 3 6 8 9 5 2 4 6 4 1 7 14 14 14 15
14 13 12 10 9 8 7 6 6 6 4 5 7 7 8 8 9 9 9 9 9 9 9 9 9 8 7 6 6 4 3 2 2 4 11 10 7 7 5 5 3 3 3 1 2 3 5 6 6 5 4 4 5 4 3 3 1 1 2 3 4 3 3 3 3 3 2 0 2 3 1 2 3 6 7 10 13 5 5 6 4 5 7 6 12 13 13 14
14 12 11 10 9 8 7 6 6 6 4 5 6 7 8 8 9 8 8 9 9 9 9 9 9 8 6 5 4 4 6 1 3 6 11 10 7 6 4 4 2 3 2 3 4 5 5 7 7 5 4 3 4 3 4 3 3 3 2 5 3 4 4 3 3 2 1 0 0 2 2 2 7 6 3 8 14 10 1 6 5 6 6 3 8 11 12 13
15 14 11 11 10 8 8 6 6 6 5 6 7 7 7 7 8 8 8 8 8 9 9 9 9 7 7 6 3 5 6 2 4 8 11 9 7 5 4 3 1 2 1 4 3 3 5 7 6 4 4 2 3 4 4 4 4 3 3 6 3 4 5 4 4 3 1 0 1 1 3 5 3 2 3 11 14 12 7 5 4 3 3 3 7 9 10 12
15 15 14 13 11 10 9 6 6 7 5 6 7 6 6 6 7 8 8 8 8 9 8 9 8 7 8 5 4 5 4 4 7 9 10 8 6 5 3 2 1 1 2 2 3 4 4 5 4 3 1 2 3 5 3 4 2 1 5 6 5 5 5 4 4 4 2 1 1 3 6 3 2 2 8 15 13 7 4 4 4 4 5 6 7 9 10 11
16 16 16 14 12 12 10 7 7 7 5 6 6 6 6 6 6 7 7 8 8 8 8 8 7 7 6 4 6 4 2 6 9 10 9 7 6 4 2 2 2 2 2 2 2 3 3 2 3 1 1 3 3 3 0 2 1 4 7 6 5 5 4 3 3 5 2 2 2 5 5 2 3 2 8 7 3 2 3 6 6 6 9 9 8 9 10 11
17 17 16 13 13 12 9 8 7 6 5 4 5 5 5 5 5 6 7 8 8 8 8 7 7 7 5 5 7 3 3 6 9 10 9 7 6 4 3 4 3 1 2 3 1 2 3 1 4 1 0 4 5 4 2 1 1 4 6 6 5 4 5 4 4 5 3 2 3 4 5 6 3 5 11 4 4 3 5 7 8 8 9 9 9 9 8 10
18 17 16 13 12 11 9 8 7 7 6 5 5 5 5 5 5 6 7 8 8 8 8 7 8 6 3 6 4 2 4 6 10 10 8 6 5 5 4 4 4 1 1 3 4 4 3 3 1 1 1 4 6 5 3 1 1 4 4 4 6 4 4 6 5 4 3 2 3 2 5 10 9 13 15 6 6 4 5 7 7 8 8 8 9 8 7 9
18 16 14 13 12 11 9 9 8 7 6 5 5 5 5 5 5 6 7 8 8 8 7 7 7 5 4 4 1 4 4 7 10 9 8 7 5 5 5 5 5 3 1 5 6 4 5 2 2 1 3 1 3 3 4 3 1 5 3 2 4 5 5 7 5 3 3 3 4 2 5 6 9 14 10 6 6 5 6 9 8 8 7 7 7 7 7 8
16 15 14 14 12 11 10 8 7 7 6 5 4 5 6 5 5 6 7 8 8 8 7 7 7 4 4 2 3 3 5 8 9 8 8 8 6 7 7 7 7 6 7 10 8 7 6 2 1 5 3 3 4 3 5 5 2 4 2 2 3 4 3 7 5 5 5 3 4 3 5 6 4 5 5 5 4 5 8 10 9 9 7 7 7 8 8 9
15 15 14 13 11 10 10 8 8 7 6 5 5 6 6 5 5 6 8 8 7 7 6 5 5 3 4 2 2 3 5 7 7 8 11 9 7 7 8 9 11 11 12 13 10 9 6 2 3 6 3 2 4 5 5 4 3 3 3 3 4 4 3 6 4 5 4 2 6 6 4 7 6 3 6 2 3 5 9 9 9 9 8 8 7 7 8 8
14 15 14 13 12 10 9 8 8 7 6 5 5 6 6 5 5 6 8 7 7 7 5 4 5 4 4 3 3 3 4 4 7 9 12 10 6 7 9 10 11 9 9 10 9 7 4 2 1 1 3 3 5 5 4 4 3 4 4 3 4 5 4 5 3 3 2 2 7 9 5 4 2 3 5 3 4 6 7 8 9 9 8 8 7 7 7 7
13 14 14 14 13 11 9 8 7 6 5 5 6 6 5 4 5 6 7 7 6 6 3 1 3 3 2 3 3 4 5 5 7 9 11 10 7 9 10 8 7 7 7 6 5 3 2 2 1 1 2 4 4 4 4 5 5 5 5 4 3 5 4 3 3 3 3 3 6 10 9 9 8 5 3 5 7 7 8 10 11 11 10 9 8 7 8 8
13 12 11 12 12 10 8 7 5 6 6 7 6 7 7 6 7 6 6 8 7 5 1 0 2 3 3 4 4 4 6 6 8 9 9 9 9 8 5 4 6 8 8 5 3 2 1 2 2 2 3 4 4 5 6 3 3 4 5 5 4 4 6 4 2 5 6 5 7 9 10 13 14 13 11 10 9 10 11 12 13 13 12 11 10 9 9 9
12 11 10 11 12 9 6 6 6 6 8 8 9 12 11 9 7 5 4 5 5 3 2 4 7 3 2 6 6 6 8 9 9 8 7 8 9 7 4 5 7 6 6 5 3 2 1 3 3 3 5 6 7 8 5 1 3 1 2 3 4 3 5 3 4 4 4 4 7 10 11 13 14 13 13 13 12 13 14 14 12 12 11 11 10 11 10 10
10 10 10 10 11 8 5 5 5 7 9 9 10 9 7 7 5 4 5 5 4 0 3 1 5 2 3 6 8 10 10 8 5 5 7 9 9 8 6 6 5 4 5 4 4 2 1 3 5 6 5 6 9 7 1 3 3 2 1 3 4 4 3 3 7 4 2 4 8 9 12 14 14 13 13 13 13 15 15 15 14 12 11 10 11 12 12 12
11 11 11 10 10 8 5 4 4 7 10 10 8 4 3 6 4 4 6 6 3 2 4 3 2 3 4 6 9 9 7 4 3 5 8 10 8 7 7 7 6 6 4 3 4 2 2 5 7 6 1 2 3 3 1 0 2 3 4 4 4 4 4 3 6 4 3 2 7 8 11 15 15 14 13 13 14 16 17 16 15 14 12 10 12 13 12 10
13 12 12 11 10 9 6 4 5 8 10 9 7 5 3 0 2 3 4 5 4 2 0 1 2 3 4 4 6 4 2 4 5 6 9 9 9 8 7 8 9 7 6 5 3 3 4 7 8 4 5 6 4 2 3 4 3 4 4 4 4 2 3 2 6 4 3 2 6 8 10 13 16 16 15 16 16 16 17 17 15 13 12 12 13 12 10 10
15 14 13 12 11 9 6 5 5 6 8 8 7 6 3 1 4 4 1 4 3 3 3 4 3 4 4 2 5 5 5 6 7 9 10 10 9 6 7 10 10 6 7 8 7 5 5 5 3 5 6 4 3 3 5 3 4 5 4 4 4 0 1 2 3 3 5 4 6 10 10 11 15 15 16 18 17 15 16 16 14 11 13 15 14 11 10 11
15 15 15 13 12 11 8 5 5 5 8 9 10 9 4 4 5 3 2 2 2 3 2 2 2 4 5 3 6 8 5 2 4 9 12 11 8 4 6 10 11 8 7 10 10 9 5 2 2 4 4 5 4 5 6 5 5 6 6 6 5 2 3 3 2 2 6 5 3 8 9 8 9 10 10 10 10 11 12 12 12 12 14 14 13 11 11 11
16 16 16 15 13 11 9 6 6 6 7 7 12 13 8 6 5 2 2 2 3 2 1 2 1 4 6 5 6 6 2 1 1 7 13 10 6 5 5 4 6 9 10 11 10 11 5 4 3 5 4 5 6 6 7 6 5 5 7 8 8 7 5 4 5 6 5 3 2 3 7 4 2 4 6 4 5 8 8 9 11 12 12 11 10 10 9 10
18 17 18 17 13 13 10 5 7 7 6 6 11 13 11 8 5 2 2 2 4 3 3 5 4 6 8 7 7 4 2 4 2 5 10 6 1 2 4 3 1 5 8 7 6 5 2 3 3 5 5 6 6 6 7 7 6 5 3 4 7 7 4 4 5 4 4 4 1 2 5 6 3 5 8 7 7 10 8 8 10 11 10 8 8 8 7 7
21 20 20 19 16 17 10 2 7 10 5 6 12 14 12 10 5 2 2 3 4 5 6 3 2 5 8 8 11 7 2 5 6 3 5 3 1 1 3 6 4 2 2 3 3 2 5 6 4 5 6 6 6 5 6 9 7 3 1 2 1 3 3 2 3 3 4 7 4 6 5 7 8 7 11 13 11 12 11 9 10 11 9 8 7 6 4 4
23 22 22 22 21 19 9 2 9 10 4 4 12 16 13 10 5 1 3 5 3 4 4 2 2 4 6 7 10 5 1 6 6 3 2 1 2 1 5 8 8 8 7 6 6 1 4 7 8 9 7 6 5 1 4 10 7 1 2 2 3 2 0 1 2 4 3 6 6 6 6 6 8 4 7 13 12 10 10 10 10 10 8 7 5 3 3 3
25 25 25 24 24 20 10 4 8 10 8 5 12 18 14 8 4 1 3 5 2 3 2 3 4 4 6 7 6 3 3 2 0 2 4 1 0 0 4 5 6 9 9 8 6 2 3 1 3 7 7 5 3 5 2 5 4 2 4 4 5 4 2 1 3 4 2 6 7 6 8 4 9 7 5 7 8 8 8 9 8 7 5 3 2 3 4 3
27 27 27 26 26 23 13 8 12 12 9 9 14 17 12 4 3 5 5 4 3 3 3 3 4 7 11 11 7 6 5 2 3 5 5 4 3 1 1 1 3 5 5 5 4 2 3 2 1 2 2 1 6 7 5 2 4 7 7 4 4 3 1 1 3 1 2 7 5 8 11 5 7 7 6 8 7 8 6 6 6 5 4 2 4 4 3 3
31 29 29 30 29 26 14 7 15 15 9 12 16 14 8 2 3 8 6 1 1 3 4 4 6 10 15 14 8 7 6 3 6 10 6 4 6 4 4 3 2 3 3 5 4 3 3 2 2 1 1 3 6 6 4 3 4 5 4 3 2 2 2 2 3 3 5 7 1 5 8 7 7 5 5 8 8 8 6 5 7 7 5 1 5 4 4 4
29 32 32 33 31 30 19 7 11 15 11 14 16 8 5 4 3 8 5 3 1 6 8 8 9 11 15 14 8 8 9 6 8 10 8 8 8 8 9 8 7 5 5 7 5 3 3 5 4 4 0 4 6 5 4 2 3 4 4 5 4 4 3 4 5 4 6 5 2 3 3 6 11 8 5 6 7 7 6 5 7 7 7 3 4 6 4 4
20 31 36 36 33 33 27 12 9 15 15 16 12 2 3 6 6 9 9 5 2 3 6 8 10 12 15 12 8 9 8 6 9 8 7 9 8 9 12 12 12 9 5 7 7 4 4 3 5 5 2 5 8 6 5 4 5 7 7 7 6 5 5 6 6 4 5 3 3 4 3 5 10 8 10 15 14 11 9 7 6 6 8 7 2 5 5 5
10 24 37 40 37 33 29 18 12 16 20 16 7 3 5 7 8 11 13 8 3 3 5 8 11 12 14 9 6 11 7 5 10 8 6 9 7 8 11 12 15 10 3 5 6 7 7 4 7 10 5 8 11 7 4 5 7 9 7 6 6 6 6 6 5 5 6 2 2 5 3 5 5 2 2 9 8 9 10 9 7 5 7 6 4 5 6 6
5 15 29 35 34 33 31 23 17 20 22 11 5 7 8 8 8 10 11 6 5 4 6 10 11 11 10 4 3 9 4 2 10 9 6 10 8 8 10 10 14 11 6 6 4 6 9 6 6 6 4 13 14 5 2 4 5 6 3 4 6 5 5 5 2 1 2 4 3 5 4 5 4 3 2 1 1 6 8 6 6 7 9 8 7 7 6 6
5 9 17 22 24 30 34 28 21 23 18 7 6 9 9 9 7 7 7 6 7 8 11 10 8 7 9 4 3 6 1 1 9 8 5 9 9 9 10 9 13 14 11 8 3 4 6 3 4 3 2 9 7 1 2 2 2 4 4 5 2 2 2 4 2 3 2 5 6 5 7 7 7 10 9 10 9 10 8 6 8 9 10 10 8 8 7 5
7 7 9 13 18 26 31 28 23 23 12 4 9 11 9 9 6 4 5 8 11 14 11 7 6 7 9 6 5 9 5 3 8 7 6 7 6 10 12 9 11 16 16 11 4 3 4 2 2 3 3 3 2 3 1 2 1 3 4 5 3 4 1 4 5 2 3 8 6 6 10 10 7 7 6 13 14 13 10 9 10 10 10 10 9 8 7 4
6 5 4 11 20 24 28 27 24 19 7 3 10 11 9 9 5 3 5 8 13 14 9 7 7 8 9 7 7 11 10 7 9 8 7 6 5 10 14 9 9 16 18 13 6 2 5 4 1 1 1 3 3 1 3 1 1 0 1 2 3 2 4 5 6 5 6 8 6 8 12 10 9 7 4 10 13 12 13 12 11 11 11 11 10 9 6 5
5 4 3 10 19 22 26 27 19 10 6 7 10 9 7 7 3 3 2 5 11 12 10 10 8 7 9 8 7 10 11 10 10 8 7 7 5 9 14 10 8 13 16 14 8 2 4 6 3 1 1 3 5 5 7 5 4 1 3 3 2 2 4 5 5 4 6 7 6 8 10 9 9 9 10 13 13 13 13 11 9 10 11 11 9 6 5 6
3 2 1 6 15 21 26 23 12 4 4 8 9 5 3 4 3 4 2 1 6 7 8 13 12 9 10 10 9 10 10 10 10 8 8 8 7 7 12 12 9 11 15 15 10 4 4 6 4 1 0 3 5 8 10 10 8 5 6 7 5 3 1 3 4 5 4 5 6 6 10 10 6 4 9 12 11 11 10 8 8 9 11 10 6 4 5 5
2 3 1 4 15 24 23 14 5 3 3 3 5 4 3 3 2 4 2 4 1 1 1 7 11 10 10 11 11 10 9 9 10 9 7 10 10 7 9 13 11 11 12 12 11 8 6 6 6 4 4 7 7 5 6 7 8 9 9 10 11 8 5 4 6 5 2 4 6 5 10 12 4 2 4 5 5 7 9 8 7 8 9 6 3 3 4 5
3 5 2 6 20 26 18 6 2 4 2 2 3 3 3 2 1 4 2 2 2 1 1 3 6 9 11 11 12 11 10 9 11 10 8 11 14 9 9 14 14 15 12 10 12 11 5 4 7 6 5 6 3 2 1 1 2 5 6 7 9 9 8 8 7 4 4 5 6 4 9 12 2 5 1 2 2 2 4 5 6 7 6 4 4 4 4 4
5 5 2 8 24 25 12 5 5 4 3 3 2 4 4 3 2 2 3 2 1 0 2 2 3 6 9 11 12 12 11 8 11 13 11 11 14 10 10 14 15 16 12 8 9 8 3 3 7 7 4 3 3 2 1 1 1 5 5 3 5 8 9 7 3 2 4 6 6 5 9 11 2 4 1 2 3 2 1 2 5 6 3 2 3 3 4 4
5 4 1 8 26 24 9 5 7 5 5 4 4 7 6 4 4 5 5 6 4 2 2 3 2 3 4 5 6 10 13 9 10 14 12 10 7 2 7 14 14 13 10 8 8 7 5 6 6 6 6 5 5 5 4 3 3 5 6 5 7 10 9 3 0 2 4 9 12 8 9 11 2 3 1 2 3 4 4 4 5 4 3 2 3 3 3 4
3 4 1 6 18 17 7 4 5 6 8 8 7 9 8 4 5 8 8 6 4 3 2 2 1 2 1 2 2 4 10 10 9 10 10 9 3 2 3 10 13 13 7 4 7 8 6 7 8 8 9 9 8 7 5 6 5 3 7 10 12 14 13 7 3 5 8 13 14 9 10 14 6 4 4 3 4 6 6 5 4 4 4 4 2 2 3 4
4 5 3 4 7 7 4 4 5 5 7 8 6 7 10 8 6 8 9 5 4 5 3 1 1 1 0 1 1 2 6 9 6 4 7 9 4 2 1 5 10 13 4 6 5 6 3 4 9 11 12 12 10 4 6 10 9 9 12 15 15 16 17 11 6 9 12 12 11 11 14 19 16 7 6 4 6 8 7 7 6 5 6 5 3 3 4 4
4 5 6 6 4 4 5 7 7 7 8 9 6 6 12 13 8 7 8 7 6 6 6 3 3 4 3 4 5 4 5 7 6 4 7 7 2 3 2 1 6 7 5 4 2 4 2 4 11 16 17 17 16 10 8 14 13 15 16 16 17 18 18 14 12 15 15 10 11 15 16 18 24 18 10 7 7 8 8 9 8 7 6 4 4 4 5 5
5 5 6 6 5 6 7 9 11 11 11 11 8 7 12 14 12 8 8 8 6 6 6 4 7 10 9 8 8 6 6 7 8 8 8 5 3 3 3 1 3 3 4 2 1 2 2 5 10 15 17 18 19 17 11 12 13 15 16 18 19 20 20 19 18 21 19 13 13 16 15 17 23 22 13 11 10 9 11 11 8 7 5 4 5 6 6 7
6 5 4 4 4 5 5 8 13 14 12 11 8 9 12 14 15 12 8 7 7 8 8 7 11 15 15 12 8 7 8 8 7 9 7 5 4 4 3 3 2 1 3 3 1 1 3 6 10 12 13 16 19 18 14 13 13 14 16 18 20 21 23 24 23 24 22 19 17 18 18 19 22 20 13 10 9 8 9 9 8 8 7 6 6 7 8 9
7 5 3 2 3 3 3 6 10 11 11 10 7 9 12 15 17 15 10 10 9 9 12 13 14 14 16 14 10 10 11 9 9 10 7 6 5 4 4 3 1 0 2 3 1 0 3 6 7 8 9 14 18 18 15 13 12 12 12 14 17 21 23 24 22 18 17 17 19 22 22 20 19 16 11 11 10 6 7 9 9 9 8 8 9 9 9 9
7 3 2 3 5 5 4 6 8 9 9 9 8 8 12 16 18 15 12 12 12 10 14 19 16 10 10 13 12 14 15 12 12 11 5 5 5 4 3 2 3 2 2 3 2 1 4 3 2 3 6 11 16 16 10 4 4 7 9 11 17 20 18 17 15 13 14 16 18 19 18 16 15 11 9 12 13 10 12 12 10 11 12 12 13 14 13 10
9 3 2 3 5 7 7 6 8 9 7 8 10 11 12 15 17 15 10 10 13 13 14 17 15 8 8 13 17 19 17 13 12 9 3 3 3 2 2 3 4 5 4 3 1 1 3 3 3 4 5 10 16 10 3 5 1 6 12 17 19 18 13 10 12 17 19 17 14 14 13 15 17 14 11 14 15 12 12 11 11 13 14 13 14 15 16 15
Wind_Direction
229 206 190 197 197 195 193 189 189 191 192 188 190 191 193 194 188 187 186 185 186 185 188 188 194 201 204 210 218 235 231 223 211 204 213 193 152 154 155 148 152 152 160 173 178 196 193 187 172 186 199 166 256 121 155 335 342 250 217 224 229 201 186 154 173 150 71 113 140 159 174 194 174 161 168 149 225 230 204 206 194 178 190 113 108 121 131 139
222 209 198 196 196 197 199 199 197 198 195 190 191 193 197 198 195 195 192 193 190 187 190 188 196 200 204 211 213 230 218 212 225 212 199 173 160 151 144 141 140 139 142 168 197 211 208 179 168 197 207 173 176 171 191 342 295 246 229 233 234 125 82 50 59 83 45 40 145 157 180 201 179 154 162 203 215 207 225 220 203 214 200 154 137 140 143 150
211 213 208 196 197 201 203 204 201 203 198 189 190 194 198 199 199 200 199 199 194 190 191 192 198 199 206 208 209 220 196 209 229 195 169 173 162 148 145 139 128 136 141 165 222 228 249 185 174 203 207 184 160 183 197 133 278 249 255 238 155 75 80 54 42 73 51 14 158 160 169 194 167 129 159 220 233 212 228 231 210 216 211 181 163 156 155 161
211 217 213 198 201 206 205 206 205 198 193 190 193 195 197 198 200 204 203 201 200 195 194 196 197 200 205 203 211 206 180 214 213 145 163 173 160 152 146 135 131 131 129 146 206 220 245 187 184 211 212 186 141 189 192 101 286 190 249 273 53 64 99 73 62 67 53 10 197 146 150 195 160 123 181 223 241 229 232 236 224 228 228 189 166 162 165 170
216 218 213 203 206 208 206 210 205 187 187 198 198 197 197 199 202 204 205 202 203 200 198 200 199 203 202 203 209 185 180 214 154 126 165 169 157 152 143 135 138 122 120 145 161 173 199 188 187 206 215 183 159 193 174 101 296 196 174 22 39 351 80 84 78 58 41 16 144 145 165 182 133 176 217 226 236 235 265 259 233 239 302 148 157 165 169 177
216 209 205 207 208 208 209 213 201 181 193 208 202 203 200 201 203 204 208 204 202 203 202 201 200 202 200 206 205 185 218 206 87 152 164 162 156 148 141 131 127 116 130 181 195 191 197 193 192 198 208 182 176 187 131 125 259 240 148 95 51 17 66 92 85 54 5 23 154 160 142 122 166 220 219 229 238 241 52 39 31 57 61 112 153 165 174 184
217 208 206 209 209 208 211 218 201 180 198 209 203 207 204 205 206 205 209 206 206 206 204 203 200 202 194 185 178 201 236 188 88 170 159 157 155 142 134 124 121 113 146 235 216 200 200 204 204 202 197 170 179 165 115 152 230 264 146 119 83 46 75 79 76 88 13 314 65 17 359 226 227 231 211 235 243 246 171 87 67 71 84 127 165 172 185 193
226 219 210 208 209 210 210 219 210 195 209 213 205 206 206 208 207 206 211 208 208 206 206 205 198 200 185 171 178 209 222 127 132 170 157 154 148 136 123 96 78 114 199 244 240 228 209 211 206 202 198 148 154 146 142 182 209 255 135 122 117 82 92 87 92 118 114 267 357 341 249 241 241 315 283 251 248 250 236 149 130 129 128 173 194 194 195 198
229 218 209 209 209 208 209 218 214 209 222 223 210 204 204 207 205 206 210 208 207 207 206 203 199 200 185 187 242 221 187 124 154 167 157 152 141 132 116 76 51 166 205 220 256 249 219 215 196 206 191 97 145 146 174 216 194 113 123 126 127 110 102 109 125 125 124 177 122 227 233 216 91 359 270 251 249 244 221 187 179 199 213 216 210 209 206 203
225 214 211 212 211 211 213 221 216 210 227 230 211 203 204 206 204 203 209 207 204 205 204 203 197 190 182 204 234 218 115 123 157 163 157 149 130 118 117 133 145 204 205 161 227 247 256 247 141 186 42 105 154 142 217 268 64 102 120 116 114 118 117 137 150 138 154 152 173 239 248 222 135 211 253 242 238 183 195 227 213 214 230 230 222 216 214 212
221 215 218 218 215 216 218 224 218 212 228 230 207 205 206 203 201 200 207 204 200 202 200 199 194 185 189 227 228 205 99 131 160 162 156 146 130 132 148 144 136 192 199 135 91 354 320 18 115 174 254 142 146 107 64 349 84 122 130 123 117 128 137 167 171 149 185 158 175 258 277 263 180 209 246 211 107 152 207 226 213 221 232 230 229 220 214 217
214 215 226 222 213 214 218 223 219 218 226 218 203 202 198 195 198 199 201 198 197 200 194 191 192 182 196 236 238 134 115 142 161 162 157 147 136 142 144 132 127 142 276 125 94 53 69 82 148 206 76 157 154 118 108 106 112 127 160 165 142 176 183 183 171 142 213 169 136 272 278 256 219 226 243 193 140 168 207 233 221 225 231 224 227 220 215 217
209 216 220 211 206 209 214 218 216 216 216 212 204 194 183 181 190 195 195 193 194 196 190 187 183 174 210 224 127 99 124 146 156 158 154 142 125 126 127 119 117 118 107 115 108 100 102 55 299 84 59 188 141 111 131 124 139 144 193 258 157 204 203 178 163 136 207 149 123 230 270 258 218 223 228 149 157 197 227 246 240 235 232 223 221 219 223 217
211 213 201 197 201 203 207 212 212 210 214 223 211 187 177 173 182 185 186 186 190 191 185 186 179 181 225 190 93 122 132 136 147 153 154 139 114 108 107 106 107 112 113 106 104 106 98 60 137 119 45 1 104 146 153 134 193 164 167 256 210 230 168 150 160 168 193 153 142 208 259 275 258 189 140 116 176 216 244 251 248 246 236 225 222 222 228 222
213 204 194 197 200 201 204 206 209 211 219 224 206 187 175 174 176 173 179 180 182 184 179 188 181 195 228 169 111 174 139 132 150 161 157 144 131 122 110 106 104 103 104 99 96 93 84 79 150 129 78 44 142 172 161 150 198 180 186 211 205 233 147 136 158 185 198 148 170 200 248 261 261 119 103 106 197 210 243 254 253 252 243 234 227 227 234 231
207 199 196 197 199 204 204 204 210 213 221 215 195 181 169 167 166 163 170 170 171 169 162 182 184 229 245 154 128 175 166 166 173 171 162 151 147 137 124 114 105 101 98 93 92 86 72 69 77 117 113 151 187 187 170 177 193 190 229 225 177 213 194 148 150 189 200 131 183 211 253 269 244 116 114 153 197 209 237 254 256 255 251 245 234 230 234 234
205 199 198 195 195 202 205 211 210 205 205 188 173 162 152 150 149 149 152 154 152 145 149 181 178 236 263 117 139 175 166 173 172 172 169 157 142 138 136 129 116 118 117 106 107 108 75 88 124 222 182 199 208 203 198 205 208 192 218 242 200 217 230 185 144 149 184 211 215 217 237 259 264 268 225 184 190 211 242 258 261 262 259 253 246 236 234 236
206 203 201 196 194 196 201 202 185 178 173 160 149 133 126 122 124 125 132 137 119 106 138 235 169 221 223 160 159 137 131 147 162 168 173 160 146 148 150 143 141 145 146 144 163 184 168 164 213 204 179 204 201 204 212 219 245 208 194 224 223 213 235 246 156 147 178 210 236 232 236 250 257 264 262 244 226 231 250 261 263 264 261 257 250 243 241 238
202 202 198 193 190 192 197 190 173 164 149 134 126 117 108 104 109 121 145 155 150 143 172 179 182 199 159 150 121 92 118 135 148 157 165 159 152 159 154 149 160 171 176 176 170 168 176 179 206 213 192 201 202 212 230 345 353 305 189 240 249 225 231 210 114 134 188 222 241 244 251 257 256 258 262 261 255 254 258 260 261 260 257 254 247 245 241 238
199 198 194 190 188 188 193 191 180 164 147 135 131 123 122 134 138 156 178 206 215 184 10 181 186 148 84 116 110 111 118 123 146 158 161 162 159 162 156 155 171 194 211 193 147 140 250 209 201 215 214 209 204 206 269 27 13 326 294 267 253 258 263 138 114 125 171 254 255 251 259 266 264 261 262 265 265 264 262 257 256 254 250 246 242 242 239 238
201 199 196 193 189 187 191 192 184 173 159 151 163 187 176 166 179 165 167 210 229 48 9 13 48 70 81 107 134 139 125 123 164 159 163 170 174 177 166 171 188 194 191 127 107 125 229 231 221 218 178 80 171 164 76 348 289 266 258 262 243 245 257 119 108 134 153 239 266 267 270 269 268 266 263 261 258 258 258 255 254 253 252 249 244 243 241 240
205 203 198 194 191 188 188 194 193 183 168 166 197 240 299 45 168 132 152 215 203 129 303 354 56 97 82 108 162 186 200 159 153 162 169 174 190 198 171 180 206 191 149 137 146 173 208 232 228 191 100 83 92 130 208 231 246 246 243 257 253 246 257 117 102 126 167 221 275 284 283 274 273 271 262 253 248 248 251 253 259 264 263 257 250 248 245 241
206 204 198 195 192 188 187 203 205 188 181 191 215 237 286 271 148 136 220 236 177 149 204 216 218 167 127 140 184 209 211 168 163 171 172 178 192 206 178 187 212 188 161 188 202 206 214 228 210 122 113 133 135 162 199 216 230 234 236 245 243 199 289 240 116 144 194 220 291 296 287 273 268 265 259 252 247 248 253 257 262 264 260 256 255 255 250 247
203 200 196 192 190 189 188 204 215 209 205 220 234 230 226 182 169 181 259 256 163 145 186 206 270 210 163 134 178 201 217 188 174 164 171 186 175 174 196 199 210 200 191 205 211 227 225 90 81 119 144 188 176 173 196 217 230 226 226 240 253 283 289 273 359 316 231 212 273 287 281 268 250 245 254 255 247 247 250 254 256 249 246 250 256 257 249 247
195 195 193 188 189 187 183 202 217 214 208 228 237 221 206 192 184 202 237 242 207 150 156 181 188 210 170 131 169 194 214 184 146 145 168 193 170 155 192 204 218 214 209 206 215 238 227 94 114 152 161 196 194 197 204 218 242 229 216 229 252 283 309 305 337 333 280 229 179 276 294 284 185 226 253 247 231 239 230 226 239 245 241 239 244 247 239 238
190 191 190 187 185 177 175 209 211 194 192 223 227 207 201 201 177 184 215 249 235 170 147 172 169 181 169 154 156 147 208 193 74 106 159 190 232 162 188 164 223 237 211 196 221 251 177 112 149 157 160 178 199 224 203 204 242 245 225 243 252 272 307 304 316 318 291 301 208 198 291 285 264 257 240 214 235 262 257 231 239 252 249 238 234 236 231 228
194 192 189 184 179 173 171 197 173 165 175 222 217 200 197 197 170 151 207 245 243 167 139 161 188 177 164 161 164 159 205 152 106 108 153 173 178 28 225 180 161 235 171 153 229 226 139 159 180 167 171 178 203 229 190 194 231 249 18 357 258 238 265 277 308 277 285 320 277 197 219 270 278 259 223 212 233 264 269 255 253 258 258 255 247 232 213 204
201 196 190 184 183 182 181 158 160 173 213 212 197 197 192 186 171 128 216 234 223 140 141 149 125 139 136 157 176 173 87 127 140 153 93 54 188 182 233 203 191 193 170 182 222 194 134 178 186 178 189 200 206 248 164 194 218 358 44 21 74 96 292 221 278 280 295 318 285 191 173 252 282 270 207 211 221 234 252 259 259 257 257 259 247 189 139 133
206 199 194 188 189 193 197 198 184 200 229 202 182 191 185 174 184 200 222 227 165 118 132 136 135 144 139 155 179 160 109 117 185 132 119 130 229 271 237 226 218 193 177 209 232 37 62 204 203 192 204 209 141 50 31 207 198 132 134 93 85 96 74 121 258 292 303 282 270 182 166 244 289 274 191 189 207 211 238 260 254 246 248 238 173 134 128 132
212 204 197 189 190 198 204 231 227 214 216 203 181 177 171 163 198 200 205 210 173 132 100 133 167 165 158 164 179 180 165 95 72 129 145 167 169 230 275 269 242 186 166 232 251 85 85 56 314 226 217 140 101 70 23 21 117 143 151 121 107 140 132 181 242 282 266 264 255 172 173 199 287 274 177 169 198 207 221 246 237 234 241 188 121 119 133 142
215 209 200 191 191 195 196 238 231 211 201 190 170 157 161 177 211 205 199 160 178 153 133 160 163 158 170 176 173 178 174 131 139 155 154 161 173 184 183 169 187 179 186 233 225 153 139 158 157 126 66 117 112 90 44 47 130 158 164 165 184 199 182 208 208 173 235 255 243 139 172 197 244 253 161 170 201 213 216 235 242 250 265 201 121 131 141 138
215 213 204 195 193 193 194 224 218 201 187 167 155 148 176 177 218 228 198 96 154 179 159 168 168 167 181 184 175 171 171 157 166 176 170 171 183 184 192 191 169 178 220 217 197 157 191 200 144 102 59 189 157 120 86 83 186 208 196 182 213 227 209 224 210 193 235 238 123 114 160 218 242 252 234 218 220 222 222 235 252 264 277 273 139 143 150 147
213 215 208 198 194 196 200 215 208 187 169 153 152 168 204 185 203 216 197 163 167 164 137 150 164 171 178 184 182 167 168 173 173 184 183 179 194 198 205 208 189 197 232 199 184 169 190 198 150 149 181 211 202 175 154 179 192 200 196 185 203 217 226 236 222 221 244 222 132 138 149 244 262 269 244 237 233 228 230 238 244 255 267 271 208 158 162 169
208 211 207 198 196 200 203 210 212 182 163 153 162 181 196 211 207 203 206 197 141 89 104 136 151 167 177 182 175 162 168 187 170 174 181 181 204 209 207 214 206 214 246 191 190 186 206 235 175 173 162 175 202 218 191 167 179 199 205 203 214 222 236 245 239 248 261 282 148 159 164 236 260 7 218 239 246 238 241 241 227 235 253 267 257 194 179 185
187 205 208 201 197 201 203 208 206 179 164 159 178 180 193 213 207 206 206 175 127 109 114 134 142 162 179 179 169 169 169 197 177 179 186 189 208 208 200 209 206 207 206 202 202 184 214 240 156 149 144 166 184 220 181 143 173 198 197 219 234 238 247 261 283 267 315 326 250 196 227 247 256 297 248 202 287 231 233 231 217 234 246 252 254 239 218 197
171 186 208 209 204 202 202 207 197 174 167 169 177 188 207 211 208 211 187 139 140 133 125 138 147 167 183 178 192 188 162 72 174 182 201 205 223 220 210 208 198 199 199 197 194 173 210 242 117 107 129 167 179 220 162 178 198 172 173 208 223 19 290 256 242 103 85 279 257 219 251 265 275 275 231 191 211 221 210 209 216 230 242 245 247 244 238 203
176 167 198 217 217 207 204 206 189 170 170 190 186 195 215 218 219 206 163 142 143 137 137 160 171 182 184 177 193 190 174 142 168 186 195 195 226 224 216 217 198 199 203 204 225 212 209 242 148 173 170 153 6 5 117 359 22 156 189 189 117 46 324 249 250 238 220 251 260 239 253 264 269 274 198 185 215 228 220 221 223 226 234 242 244 239 226 186
189 175 200 218 216 212 208 202 180 163 157 179 201 210 215 218 218 176 161 148 144 149 169 186 180 188 187 181 187 178 173 171 174 191 192 179 217 212 202 209 202 201 204 207 226 207 193 224 211 144 165 117 90 195 194 146 91 327 278 166 142 229 221 204 224 244 240 246 261 259 264 265 246 245 214 200 211 218 223 224 221 226 232 238 244 237 203 169
207 194 245 221 211 210 206 195 175 160 158 173 202 215 210 211 190 115 142 164 164 171 192 200 193 195 192 186 172 162 177 185 169 181 197 184 205 200 188 191 197 201 200 199 210 175 174 221 223 43 2 118 133 201 206 176 142 7 296 217 198 254 235 215 210 226 244 245 257 272 275 266 243 241 242 231 219 212 219 220 214 223 234 237 240 226 182 172
225 218 260 207 202 201 193 182 169 171 174 181 204 212 199 205 156 109 64 129 189 191 205 211 205 199 198 191 171 159 183 198 177 184 202 185 196 203 188 187 187 191 192 193 205 196 169 216 219 133 50 178 182 204 204 187 168 180 216 211 198 191 246 279 242 224 242 250 256 276 276 268 261 244 238 236 229 219 213 211 210 219 233 237 231 201 181 176
222 242 250 179 188 182 173 169 168 176 169 205 227 229 230 232 173 173 122 40 352 309 258 228 216 209 201 191 184 168 174 199 192 194 205 193 206 217 185 185 179 164 172 187 203 204 192 206 206 167 178 209 209 201 207 202 187 191 201 204 204 193 183 222 230 211 204 252 251 263 274 271 265 125 221 224 213 207 194 193 209 224 229 222 198 195 192 178
219 223 190 163 177 169 161 176 164 135 175 227 204 200 228 257 249 206 203 46 17 342 335 272 237 222 207 200 200 176 164 193 196 198 214 206 213 216 179 179 173 157 161 185 198 199 189 200 215 207 196 204 186 88 62 286 248 233 227 218 214 198 192 211 217 192 174 225 248 260 270 271 268 98 151 182 141 161 178 195 223 233 222 182 167 193 202 192
225 215 118 160 177 169 163 202 164 136 221 222 192 201 215 244 248 211 229 223 160 190 224 230 252 238 218 210 206 182 171 192 198 201 214 217 219 214 177 177 173 162 169 187 188 181 157 194 221 227 215 175 118 110 115 56 279 256 248 232 224 213 209 214 227 217 189 202 222 231 249 260 277 82 93 100 92 94 154 243 244 232 208 164 184 203 204 192
231 227 43 179 184 179 181 203 173 178 198 170 198 212 206 240 244 212 214 209 190 169 195 214 243 261 237 228 219 191 181 189 202 206 213 217 220 195 167 179 177 172 183 188 173 161 166 193 208 224 228 209 185 197 211 182 189 237 235 210 217 220 209 182 24 255 229 220 218 220 244 254 256 89 161 147 136 188 211 228 240 229 204 204 212 202 190 176
227 231 260 197 193 191 205 219 179 186 187 172 192 203 193 214 233 220 220 215 204 201 195 219 234 37 346 303 306 214 197 205 210 205 213 217 202 50 176 181 181 192 196 161 159 164 173 188 188 203 222 220 215 214 200 177 170 216 231 214 210 212 205 194 199 218 233 236 226 220 245 255 250 126 158 188 178 196 205 198 215 240 236 229 211 182 188 196
207 220 207 194 206 210 232 233 203 187 182 178 192 196 193 202 209 210 220 226 209 205 221 257 99 80 29 195 312 260 221 231 236 198 212 217 179 79 230 183 195 203 163 75 133 159 154 195 192 203 221 227 234 230 134 138 160 193 210 207 205 208 209 208 212 219 229 241 238 227 236 256 261 224 172 195 202 200 209 200 197 221 231 228 211 192 203 217
214 221 198 185 209 226 227 224 214 203 183 175 181 187 195 209 209 184 199 215 203 196 216 235 197 200 208 188 205 229 220 238 259 238 219 218 163 83 74 167 221 204 113 76 167 150 129 219 206 213 229 236 246 247 164 148 175 200 203 201 202 205 206 207 218 226 226 234 246 236 225 245 261 252 220 221 220 206 218 216 202 209 215 205 198 203 218 229
217 225 208 200 210 216 219 214 207 210 198 180 186 195 193 204 209 193 193 205 203 193 199 221 218 216 219 209 208 219 214 222 241 239 226 207 158 128 116 148 228 173 124 140 211 118 159 229 219 219 234 242 247 249 218 180 188 200 199 199 200 202 203 206 220 228 225 224 241 245 231 234 254 259 245 238 243 238 233 223 209 212 205 185 196 206 219 230
217 232 228 228 233 220 221 211 203 210 206 188 199 213 201 202 207 205 193 182 200 205 192 206 219 213 216 219 212 215 217 212 226 235 228 204 171 161 175 189 175 152 171 171 128 92 179 230 236 230 241 248 248 248 233 216 216 211 206 203 200 200 202 206 218 225 226 229 240 250 251 247 253 261 258 253 262 265 253 236 225 226 212 196 211 213 213 224
215 223 216 220 245 240 239 216 204 209 209 197 205 215 211 213 211 208 195 179 190 200 193 210 220 206 208 215 212 221 224 216 225 231 221 213 206 185 201 207 134 48 219 167 130 324 199 224 240 235 245 252 251 249 241 234 238 233 222 214 207 205 205 209 217 222 226 235 240 246 255 258 257 262 268 271 269 258 244 236 233 238 228 215 229 234 225 222
226 268 261 222 223 213 212 215 207 211 210 203 208 210 211 217 215 213 207 195 192 187 189 209 218 201 201 211 213 225 226 219 229 235 220 211 214 196 209 203 110 117 184 171 127 145 189 214 238 207 233 247 248 249 242 224 266 264 249 233 220 215 211 209 214 216 218 226 233 241 250 257 259 262 265 266 259 244 242 242 239 250 248 240 244 248 243 235
223 269 275 235 226 206 201 212 211 214 213 203 207 211 212 219 218 216 213 203 203 199 192 203 208 194 199 210 214 223 224 219 230 238 206 162 163 141 153 151 141 148 164 172 121 113 180 207 217 198 217 246 250 248 148 116 149 256 240 231 225 222 221 216 216 219 220 221 227 233 237 246 259 263 257 257 258 252 253 251 244 249 253 250 250 253 253 249